Weather Roundup
Issued by NWS Chicago, IL

Home | Current Version | Previous Version | Text Only | Print | Product List | Glossary On
Versions: 1 2 3 4 5 6 7 8 9 10 11 12 13 14 15 16 17 18 19 20 21 22 23 24 25 26 27 28 29 30 31 32 33 34 35 36 37 38 39 40 41 42 43 44 45 46 47 48 49 50
000
NZUS59 KLOT 220409
HRRLOT

CHICAGO AREA WEATHER ROUNDUP
NATIONAL WEATHER SERVICE CHICAGO/ROMEOVILLE IL
1100 PM CDT FRI JUL 21 2017

NOTE: "FAIR" INDICATES FEW OR NO CLOUDS BELOW 12,000 FEET WITH NO
SIGNIFICANT WEATHER AND/OR OBSTRUCTIONS TO VISIBILITY.

* THESE STATIONS ARE NOT UNDER NWS QUALITY CONTROL. THEY ALSO MAY NOT
  REPORT WEATHER SUCH AS PRECIPITATION OR FOG.

ILZ005-006-012>014-019>023-220500-
NORTHEAST ILLINOIS

CITY           SKY/WX    TMP DP  RH WIND       PRES   REMARKS
OHARE          TSTM      74  71  91 E6        29.89R FOG
MIDWAY         TSTM      77  74  90 SE7       29.87S FOG
AURORA         TSTM      70  70 100 S6        29.88S VSB 3/4
LANSING*       TSTM      75  72  91 N3        29.90S
JOLIET*        TSTM      72  72  99 CALM      29.89F
WAUKEGAN       LGT RAIN  71  71 100 SE8       29.86F FOG
DUPAGE AIRPORT RAIN      71  71 100 CALM      29.88R FOG
WHEELING       TSTM      73  73 100 E6        29.90S FOG
MORRIS*        TSTM      71  69  95 E5        29.85F
LEWIS AIRPORT* TSTM      71  67  90 W3        29.89F
NORTHERLY ISL    N/A     74  71  91 SE8         N/A
$$

WIZ051-052-058>065-066-070>072-220500-
SOUTHEAST WISCONSIN

CITY           SKY/WX    TMP DP  RH WIND       PRES   REMARKS
MILWAUKEE      LGT RAIN  66  62  87 E7        29.87F
KENOSHA*       LGT RAIN  72  69  90 S15       29.85F
RACINE*        CLOUDY    71  71 100 E8        29.89F FOG
WAUKESHA       CLOUDY    64  61  88 E6        29.89F
WEST BEND      DRIZZLE   63  63 100 E5        29.90F
$$

INZ001>003-010>013-019-020-220500-
NORTHWEST INDIANA

CITY           SKY/WX    TMP DP  RH WIND       PRES   REMARKS
GARY*          CLOUDY    76  74  93 CALM      29.90S
MICHIGAN CITY* NOT AVBL
RENSSELAER*    NOT AVBL
VALPARAISO     RAIN      73  72  96 NE3       29.92F FOG
$$

LMZ740>746-220500-
SOUTHERN LAKE MICHIGAN

STATION/POSITION TIME  SKY/WX   TEMP WIND        PRES    VSBY
                                AIR  DIR/SP/G
                 (UTC)          (F)  (DEG/KT/KT) (MB)    (MI)
HARRISON CRIB    0340            75  140/ 10/ 12   N/A
BURNHAM HARBOR   0400            74                N/A
CALUMET HARBOR   0348            74  130/  5/  8 1011.8F
BURNS HARBOR     0340            75  140/  6/ 10 1012.9F
MICHIGAN CITY    0340            72  110/  5/  6   N/A
$$

ABBREVIATIONS USED IN REMARKS
   TC - TEMPERATURE IN CELSIUS
  WCI - WIND CHILL INDEX
   HX - HEAT INDEX
  VSB - VISIBILITY
$$




USA.gov is the U.S. government's official web portal to all federal, state and local government web resources and services.